Weather History for Bishop, CA

Change the Weather History Date:

Saturday, August 10, 2013

  Actual Average Record
Temperature  
Mean Temperature 70 °F 76 °F  
Max Temperature 91 °F 97 °F 105 °F (1970)
Min Temperature 49 °F 55 °F 43 °F (1950)
Degree Days  
Heating Degree Days 0 0  
Month to date heating degree days 0 0  
Since 1 June heating degree days 0 20  
Since 1 July heating degree days 0 1  
Cooling Degree Days 5 11  
Month to date cooling degree days 78 117  
Year to date cooling degree days 949 781  
Since 1 June cooling degree days 863 713  
Growing Degree Days 20 (Base 50)    
Moisture  
Dew Point 26 °F    
Average Humidity 24    
Maximum Humidity 42    
Minimum Humidity 6    
Precipitation  
Precipitation 0.00 in 0.00 in 0.06 in (1961)
Month to date precipitation 0.00 0.04  
Year to date precipitation 0.95 3.28  
Snow  
Snow 0.00 in 0.00 in - ()
Month to date snowfall 0.0 0.0  
Since 1 June snowfall 0.0 0.0  
Since 1 July snowfall 0.0 0.0  
Snow Depth 0.00 in    
Sea Level Pressure  
Sea Level Pressure 29.86 in    
Wind  
Wind Speed 12 mph (South)    
Max Wind Speed 22 mph    
Max Gust Speed 30 mph    
Visibility 10 miles    
Events      
T = Trace of Precipitation, MM = Missing Value Source: NWS Daily Summary

Daily Weather History Graph

Daily Weather History Graph

Search for Another Location

Airport:

Trip Planner

Search our weather history database for the weather conditions in past years. The results will help you decide how hot, cold, wet, or windy it might be!

Date:

Astronomy

Aug. 10, 2013 Rise Set
Actual Time 6:05 AM PDT 7:51 PM PDT
Civil Twilight 5:37 AM PDT 8:19 PM PDT
Nautical Twilight 5:03 AM PDT 8:53 PM PDT
Astronomical Twilight 4:27 AM PDT 9:29 PM PDT
Moon 9:50 AM PDT (8/10) 9:42 PM PDT (8/10)
Length of Visible Light 14h 41m
Length of Day
13h 45m
Waxing Crescent, 15% of the Moon is Illuminated
Aug 10
Waxing Crescent
Aug 14
First Quarter
Aug 20
Full
Aug 28
Last Quarter
Sep 5
New

Hourly Weather History & Observations

Time (PDT) Temp. Dew Point Humidity Pressure Visibility Wind Dir Wind Speed Gust Speed Precip Events Conditions
12:56 AM 66.9 °F 24.1 °F 20% 29.83 in 10.0 mi SW 6.9 mph - N/A   Clear
1:56 AM 64.0 °F 27.0 °F 25% 29.85 in 10.0 mi North 5.8 mph - N/A   Clear
2:56 AM 60.1 °F 30.0 °F 32% 29.86 in 10.0 mi Variable 3.5 mph - N/A   Clear
3:56 AM 54.0 °F 27.0 °F 35% 29.88 in 10.0 mi NW 6.9 mph - N/A   Clear
4:56 AM 52.0 °F 28.0 °F 40% 29.88 in 10.0 mi NNW 6.9 mph - N/A   Clear
5:56 AM 48.9 °F 27.0 °F 43% 29.91 in 10.0 mi NW 4.6 mph - N/A   Clear
6:56 AM 53.1 °F 28.0 °F 38% 29.92 in 10.0 mi North 5.8 mph - N/A   Clear
7:56 AM 63.0 °F 27.0 °F 26% 29.93 in 10.0 mi NW 3.5 mph - N/A   Clear
8:56 AM 71.1 °F 28.0 °F 20% 29.92 in 10.0 mi Calm Calm - N/A   Clear
9:56 AM 75.9 °F 28.9 °F 18% 29.91 in 10.0 mi SSW 5.8 mph - N/A   Clear
10:56 AM 82.0 °F 30.0 °F 15% 29.88 in 10.0 mi SSE 13.8 mph 19.6 mph N/A   Clear
11:56 AM 86.0 °F 24.1 °F 10% 29.86 in 10.0 mi South 13.8 mph 21.9 mph N/A   Clear
12:56 PM 88.0 °F 18.0 °F 8% 29.85 in 10.0 mi South 16.1 mph 24.2 mph N/A   Clear
1:56 PM 89.1 °F 15.1 °F 6% 29.83 in 10.0 mi South 19.6 mph 25.3 mph N/A   Clear
2:56 PM 90.0 °F 12.0 °F 6% 29.82 in 10.0 mi SSE 13.8 mph 25.3 mph N/A   Clear
3:56 PM 91.0 °F 18.0 °F 7% 29.81 in 10.0 mi South 18.4 mph 24.2 mph N/A   Clear
4:56 PM 90.0 °F 18.0 °F 7% 29.81 in 10.0 mi SSE 20.7 mph 25.3 mph N/A   Clear
5:56 PM 89.1 °F 19.9 °F 8% 29.81 in 10.0 mi SSE 19.6 mph 25.3 mph N/A   Clear
6:56 PM 86.0 °F 23.0 °F 10% 29.81 in 10.0 mi SSE 19.6 mph 26.5 mph N/A   Clear
7:56 PM 81.0 °F 28.9 °F 15% 29.81 in 10.0 mi SSE 15.0 mph - N/A   Clear
8:56 PM 79.0 °F 32.0 °F 18% 29.83 in 10.0 mi SE 13.8 mph 23.0 mph N/A   Clear
9:56 PM 78.1 °F 32.0 °F 19% 29.84 in 10.0 mi SSE 15.0 mph 25.3 mph N/A   Clear
10:56 PM 78.1 °F 34.0 °F 20% 29.85 in 10.0 mi SSE 18.4 mph 29.9 mph N/A   Clear
11:56 PM 73.9 °F 35.1 °F 24% 29.86 in 10.0 mi South 8.1 mph - N/A   Clear